Theta_e
304 304 304 302 302 303 302 301 300 300 301 304 306 305 305 306 307 307 307 309 312 313 314 315 314 315 317 316 313 312 311 311 309 306 305 303 301 301 301 300 299 299 300 301
300 303 304 301 303 303 302 301 300 300 300 304 307 309 306 306 306 306 307 310 312 312 313 311 312 313 316 314 311 310 309 309 307 307 302 301 301 303 303 302 301 302 302 301
297 301 301 299 301 302 301 302 302 300 302 304 304 304 305 305 306 306 308 311 312 311 311 314 313 316 311 310 308 307 306 306 307 306 301 300 300 301 301 300 301 300 300 300
299 301 293 301 305 304 302 301 302 302 302 303 304 306 306 306 306 307 309 310 309 309 310 315 314 315 311 309 305 303 305 306 306 305 302 302 301 298 300 300 299 299 299 300
299 297 299 301 304 303 301 300 302 301 302 304 305 305 305 307 309 309 309 310 309 308 309 311 314 313 308 305 303 304 304 304 303 303 302 298 296 299 300 300 299 299 299 298
300 295 293 302 306 307 307 299 303 303 303 303 304 296 301 307 308 308 308 308 308 309 311 312 314 313 305 303 304 303 302 301 301 301 299 298 298 300 301 301 299 298 298 298
299 298 300 304 305 306 297 298 303 304 304 304 302 303 306 307 306 307 308 310 309 306 307 311 311 310 304 305 303 303 301 300 301 302 300 300 302 302 301 299 298 298 298 299
300 297 294 304 304 302 304 305 305 306 306 305 305 305 305 305 304 304 304 305 306 306 307 310 312 307 307 305 304 302 301 301 301 301 300 301 302 299 299 299 298 298 298 298
302 301 304 305 305 306 306 306 306 306 306 305 304 303 303 302 302 303 304 304 308 309 310 309 310 312 308 304 304 301 300 301 301 302 302 302 300 299 298 297 297 297 297 296
302 301 304 305 306 308 309 308 307 306 305 305 303 303 302 301 302 304 305 306 309 309 308 305 311 310 308 304 303 300 299 299 302 301 302 302 303 301 299 297 297 297 298 297
300 302 304 304 307 308 308 307 305 305 305 304 304 303 303 303 303 305 306 308 310 308 306 310 311 310 307 305 303 300 301 299 301 301 302 301 302 302 299 298 295 296 297 298
305 307 306 305 307 309 306 305 304 305 304 305 303 303 306 305 307 308 308 308 308 307 311 310 310 310 309 307 305 303 300 299 300 300 300 300 301 302 295 295 294 293 293 295
307 308 308 308 309 308 306 305 305 305 305 304 304 306 306 306 308 308 310 307 306 307 312 311 311 310 311 311 309 305 301 301 301 299 300 300 301 301 299 301 297 295 294 294
309 309 306 308 306 307 306 305 305 305 306 305 304 305 305 307 309 309 308 310 311 313 311 311 311 311 312 311 309 307 305 298 300 301 301 302 302 302 303 300 299 300 299 296
307 308 310 309 307 305 305 306 304 303 305 304 305 306 306 307 309 308 311 313 314 312 311 311 311 310 310 310 308 307 304 302 301 301 301 301 303 303 304 303 299 302 305 300
308 309 308 307 305 304 304 304 303 303 303 304 305 306 307 308 309 308 308 312 311 309 310 309 308 309 308 308 307 304 303 296 297 301 301 302 304 303 301 301 301 303 302 299
306 305 305 305 304 303 303 304 303 303 303 304 305 308 307 307 306 305 308 309 309 308 309 308 307 307 307 307 306 304 303 302 292 301 301 301 301 301 301 301 301 303 303 300
311 310 309 309 305 303 303 304 302 303 303 304 306 307 306 306 305 306 307 308 308 307 307 307 307 307 306 306 305 304 303 302 301 300 301 301 300 301 301 301 302 303 304 301
309 308 307 306 305 304 303 301 303 304 304 304 305 306 306 305 305 306 307 307 306 305 305 306 299 304 304 300 302 302 302 302 302 301 301 296 300 301 300 301 302 301 302 301
307 306 305 304 304 304 302 303 304 304 305 305 305 305 305 305 306 305 307 305 305 305 306 305 306 305 304 302 297 303 302 301 301 300 300 300 300 300 301 296 300 300 299 299
305 304 303 303 303 304 304 304 304 303 304 305 305 305 304 305 305 306 307 304 305 304 304 301 305 304 303 299 301 303 303 301 300 300 300 299 300 300 300 300 300 301 301 302
305 304 303 303 304 303 303 304 304 304 304 304 306 306 305 305 305 304 306 306 306 289 303 305 305 293 301 291 301 300 300 301 300 300 299 299 299 299 298 299 299 299 299 299
305 304 303 303 304 303 303 304 304 304 304 304 305 305 306 307 307 306 305 305 307 297 306 305 291 287 289 305 302 300 299 299 299 299 299 299 298 298 298 298 298 298 298 297
304 303 304 304 304 302 301 303 304 304 304 303 305 307 306 303 306 307 306 293 288 296 303 301 296 287 290 305 304 302 300 300 299 299 299 293 299 298 298 298 297 297 296 295
303 304 304 303 302 302 303 303 303 303 303 306 305 305 305 306 305 305 303 302 288 298 305 288 287 289 305 305 305 304 303 301 300 300 299 299 299 299 298 297 296 295 294 294
303 303 303 303 303 303 303 304 304 305 304 302 303 304 305 306 305 304 307 300 305 296 306 305 306 305 305 304 304 305 304 302 300 299 298 299 298 299 298 296 295 294 294 296
303 299 304 303 303 304 304 305 304 302 302 303 303 306 306 306 306 305 299 307 307 305 306 306 305 301 304 304 303 303 304 302 295 299 298 298 297 296 295 295 296 296 297 297
Wind_Speed
10 11 13 11 13 14 9 3 5 4 1 1 2 5 5 6 8 10 12 12 11 10 9 10 10 11 11 11 11 11 12 13 12 7 8 9 10 11 13 13 12 12 12 13
6 8 13 16 10 7 7 5 6 2 1 2 4 6 9 11 9 11 10 9 9 11 12 12 11 11 11 11 11 10 11 13 11 8 9 9 11 13 13 14 15 15 15 15
5 3 1 4 7 7 2 2 3 5 5 6 7 10 12 10 11 11 7 6 9 12 11 11 12 11 8 8 7 8 9 11 10 9 9 9 9 12 14 14 14 15 15 15
4 5 3 4 3 2 3 2 3 3 6 8 9 10 8 11 11 9 8 11 11 11 11 10 11 9 7 7 7 8 11 11 11 8 8 9 13 12 12 12 13 13 14 14
2 3 4 2 1 2 5 4 5 5 7 9 11 9 3 14 11 10 11 10 8 7 9 10 10 8 6 7 7 10 11 11 10 10 10 10 11 12 11 10 11 11 11 12
3 2 2 3 1 6 3 3 6 6 8 10 11 12 10 13 14 14 13 9 7 11 12 11 11 7 6 7 8 10 11 10 9 9 9 9 9 11 10 9 10 8 10 10
3 3 3 2 7 5 4 5 4 6 7 9 9 6 11 13 13 13 13 12 11 9 9 10 9 6 6 6 9 9 9 9 10 9 8 8 9 9 9 9 8 9 9 9
2 2 3 6 3 3 4 3 4 6 7 9 9 11 12 13 14 14 14 11 11 9 9 10 7 6 7 9 7 9 9 11 12 11 9 8 10 9 10 9 8 8 9 8
4 4 3 4 7 4 3 6 5 6 8 9 10 11 12 12 12 11 11 9 9 9 9 10 6 6 8 7 7 8 10 11 11 11 9 8 9 9 7 8 7 8 6 6
5 3 6 5 6 6 8 8 5 7 7 8 9 11 11 10 10 10 9 9 9 9 9 7 6 7 8 7 7 8 9 8 9 9 9 9 7 8 8 8 8 8 8 7
4 4 5 4 5 7 9 7 6 7 7 7 8 9 10 9 9 9 9 9 9 10 7 6 6 6 6 6 6 7 8 6 7 8 8 8 7 8 7 6 5 6 5 5
2 9 4 6 8 7 7 6 6 7 7 8 7 7 9 8 9 9 9 9 10 9 7 8 6 6 5 4 5 5 6 4 5 5 5 5 6 6 5 5 7 7 7 8
5 8 8 13 9 7 7 6 6 6 6 7 6 8 9 7 9 8 9 10 8 5 6 6 5 5 4 4 4 5 5 4 5 4 4 5 6 7 6 6 4 8 12 10
14 15 9 8 6 7 7 7 7 6 7 7 6 7 7 7 8 9 9 8 7 6 6 6 5 6 7 6 6 7 6 3 5 5 5 5 6 6 6 6 8 7 7 9
5 3 9 13 10 8 7 6 7 6 7 7 7 6 7 7 9 9 7 6 5 6 6 6 7 7 7 7 8 7 6 7 5 5 6 5 5 5 7 7 5 7 8 10
10 12 12 10 9 7 7 6 7 7 6 5 4 5 5 5 6 7 6 6 5 6 7 8 8 7 6 7 8 8 7 5 6 5 5 6 6 7 6 6 5 6 6 6
15 8 9 8 7 7 6 6 6 6 4 3 4 4 5 5 6 6 6 7 7 7 7 8 7 6 6 6 6 5 5 6 5 5 5 6 5 6 5 5 5 5 6 8
5 8 6 7 9 8 7 7 6 5 3 2 2 4 5 6 6 6 6 5 6 9 10 8 6 6 6 5 6 5 5 5 5 5 4 5 5 5 6 6 6 6 6 7
11 12 10 10 8 7 7 7 6 3 2 2 1 4 5 5 5 5 6 8 8 8 9 8 6 7 7 5 3 5 4 6 5 4 4 5 5 5 6 6 7 7 7 8
12 11 10 9 7 7 7 6 7 5 2 1 2 4 4 5 4 4 6 9 6 4 5 6 7 7 6 6 5 4 5 6 5 4 5 4 5 5 5 6 6 6 6 5
12 10 10 9 8 6 6 5 5 4 3 1 4 4 5 4 3 4 4 5 4 5 5 4 5 4 4 4 3 2 3 4 5 4 4 4 5 5 5 6 6 6 6 5
9 9 8 8 7 6 4 4 4 4 3 3 4 4 3 4 3 3 3 4 3 1 3 4 4 4 4 2 4 4 2 3 4 4 4 4 4 4 5 5 5 5 5 6
7 8 7 7 6 6 5 3 4 4 4 4 4 4 2 2 2 1 2 3 2 2 2 4 3 3 4 2 4 3 3 3 3 3 3 3 3 3 4 5 5 5 6 6
8 7 7 6 6 6 5 3 4 4 4 4 4 2 2 2 2 1 2 3 3 3 3 3 2 2 3 3 2 4 3 2 3 3 3 3 3 3 3 4 5 5 5 6
8 8 7 6 5 4 5 5 5 4 4 5 3 1 1 1 2 1 1 3 4 4 3 4 2 2 1 1 1 2 3 3 3 3 3 3 3 3 4 4 4 5 5 6
8 6 6 5 4 4 4 4 4 3 3 3 1 1 1 1 1 1 1 2 4 3 3 3 1 1 1 2 1 1 2 3 3 3 3 3 4 4 4 4 4 4 5 5
6 5 5 5 3 4 4 4 4 4 3 3 2 3 3 3 3 4 2 2 3 3 3 2 2 1 1 2 1 1 0 3 4 3 3 3 3 3 4 4 4 3 3 5
Wind_Direction
80 87 87 80 55 49 66 29 13 94 76 193 261 295 317 335 356 3 358 0 359 8 15 7 358 356 12 15 23 8 8 16 16 49 35 16 19 17 21 24 23 25 22 34
66 102 95 75 53 54 53 55 90 84 58 13 313 305 323 346 355 355 352 353 14 12 8 359 353 352 11 17 19 9 18 23 15 48 44 24 19 24 25 26 26 29 33 42
129 191 295 73 26 43 51 39 359 4 21 351 346 342 340 349 355 344 341 353 0 1 355 353 359 357 23 24 20 17 12 17 22 36 44 34 29 26 29 30 32 35 36 37
97 145 199 73 39 32 9 74 44 24 2 348 344 340 1 18 352 350 357 358 358 350 343 347 360 6 21 42 29 23 26 23 25 31 58 35 31 32 33 36 37 37 36 36
145 76 107 191 198 332 327 69 30 354 350 346 347 322 21 16 9 355 347 346 347 345 346 355 2 9 48 53 36 32 25 28 20 24 49 40 34 29 32 33 33 35 35 28
134 131 100 97 117 333 211 144 22 2 355 356 339 335 354 356 345 344 341 341 351 356 357 355 2 38 65 50 42 35 28 24 25 40 55 47 35 40 37 35 32 26 23 27
100 101 112 25 320 306 286 35 33 18 23 13 0 338 333 346 353 350 345 355 4 356 354 0 355 90 82 58 51 40 39 38 40 47 52 37 46 38 29 28 28 20 22 24
126 112 123 11 297 336 74 96 47 51 29 4 350 349 359 356 356 359 357 348 360 2 1 5 32 101 88 64 57 54 51 54 52 53 53 57 49 33 27 20 18 11 13 18
358 68 90 40 79 86 91 79 54 37 22 0 2 5 359 5 6 355 355 351 350 3 15 29 57 78 85 75 72 65 62 62 65 62 56 46 40 32 19 9 9 12 12 11
179 142 129 112 92 90 83 89 70 44 28 25 16 14 14 10 10 5 21 2 1 9 21 27 73 78 83 90 85 72 70 60 64 59 53 46 40 41 30 15 10 13 14 14
97 142 140 124 118 119 100 83 57 54 47 41 30 29 17 19 18 21 20 10 10 8 11 71 85 84 85 95 95 89 82 69 58 58 42 36 42 26 21 31 9 1 4 0
94 151 104 129 137 132 101 72 55 50 58 50 43 14 19 23 30 26 20 6 13 17 78 88 90 85 88 99 97 101 90 66 46 31 34 29 24 52 70 22 7 16 17 21
127 115 100 123 122 113 100 81 76 74 61 61 37 19 31 30 34 24 28 13 5 5 76 92 80 65 52 64 101 111 105 78 57 9 28 33 31 35 18 41 59 32 17 21
118 116 110 154 134 110 98 96 96 89 78 71 39 40 38 32 38 30 23 13 21 40 68 61 58 43 26 56 86 108 101 30 61 33 36 43 48 30 35 37 13 13 0 4
105 63 116 121 121 106 106 117 106 96 77 63 48 41 38 28 39 32 26 23 51 62 46 34 29 36 55 71 88 102 92 70 51 55 47 24 47 44 31 36 22 24 20 18
114 112 123 128 126 121 121 125 121 102 78 57 41 36 32 47 58 41 23 22 51 46 28 33 48 55 63 80 101 102 89 50 51 59 50 40 38 48 39 32 23 40 27 5
127 138 147 146 148 141 130 131 130 118 92 42 28 41 64 80 81 62 45 44 37 31 34 47 59 62 65 79 97 101 91 87 56 63 52 43 42 34 29 32 29 29 44 21
106 122 142 148 151 144 139 143 149 134 95 25 8 71 71 59 46 57 42 37 56 54 40 37 37 60 68 82 102 106 84 83 59 69 50 47 33 32 28 32 34 32 39 41
114 115 114 118 126 131 136 145 152 146 97 42 81 82 69 62 51 53 78 65 54 48 28 26 12 54 61 52 110 106 98 81 73 63 43 34 42 42 37 32 41 36 35 36
114 112 115 118 123 134 135 148 161 154 135 87 104 117 85 50 61 88 88 79 68 55 19 43 60 60 55 42 354 105 98 80 71 59 47 52 44 49 42 49 38 40 35 21
128 128 128 132 131 132 130 147 160 145 120 91 137 111 83 57 70 136 125 95 69 66 68 74 66 69 56 1 7 56 94 79 73 60 49 39 38 42 36 35 26 22 20 13
137 137 138 141 141 127 127 132 138 137 138 137 134 121 101 75 76 76 31 47 102 7 80 76 69 36 44 321 54 51 67 17 31 46 57 52 41 36 29 23 20 20 16 11
135 136 140 148 144 131 128 123 122 135 145 150 145 134 109 42 16 18 118 122 147 113 90 76 61 53 339 67 93 82 58 24 22 8 24 47 59 46 25 23 16 11 9 3
134 139 138 139 133 139 139 129 122 118 124 126 137 135 161 144 119 47 52 112 116 170 77 71 84 69 306 72 65 100 97 69 36 21 5 353 22 39 37 26 19 11 12 8
139 140 143 148 147 135 134 141 131 138 152 147 123 106 76 9 334 51 65 121 140 207 133 114 124 268 332 60 49 39 70 64 44 25 29 9 17 27 43 42 31 16 10 7
149 149 143 151 143 145 150 162 151 149 155 149 154 191 224 222 172 181 185 167 177 185 187 169 174 172 23 2 19 59 59 80 57 54 30 32 20 12 23 25 28 29 19 6
138 147 143 137 137 149 162 164 154 161 172 172 177 216 241 249 227 246 236 192 182 183 183 178 176 148 16 357 3 1 55 84 50 44 55 48 39 25 10 11 18 27 35 32